Location: Salillas
(41.9950°N, 0.2228°W)
Time: 08:57:25
(UTC+00:00)

Cosmos 2369 Rocket - Pass Details

Date: 29 March 2020
Orbit: 829 x 852 km, 71.0° (Epoch: 03 June)

Event Time Altitude Azimuth Distance (km) Brightness Sun altitude
Rises 19:47:00 0° 343° (NNW) 3,426 5.9 -15.9°
Reaches altitude 10° 19:49:48 10° 355° (N) 2,484 5.0 -16.4°
Maximum altitude 19:54:44 29° 55° (NE) 1,498 3.2 -17.2°
Enters shadow 19:56:25 25° 84° (E) 1,640 3.2 -17.5°
